OBJECT H

Satellite information

Favourite Embed

Satellite Type and Status

UNKNOWNIN ORBIT

Key statistics

Satellite OBJECT H at a glance.

Uptime

398

Days in orbit

Revolutions

≈ 15.3

Per day

Orbit

SSO

Sun Synchronous Orbit

Inclination

97.4

Latest

Satellite identification and parameters

Extended collection of information and parameters for OBJECT H.

Object identification

Identified? True

Debris? False

Object name: OBJECT H

International designator: 2024-205H

Object number (NORAD): 61901

Object ID (CCSDS): 61901

Country: PEOPLES REPUBLIC OF CHINA (PRC)

Current information (Y/N): Y

RCS size: MEDIUM

Orbital parameters

Period: 94.343 minutes

Inclination: 97.4315 deg

SMA: 6864.883 km

Apoapsis: 493.821 km

Periapsis: 479.674 km

RAAN: 61.2226 deg

Eccentricy: 0.00103043

Argument of periapsis: 342.413 deg

Mean anomaly: 17.675 deg

Mean motion: 15.2634637 rev/day

Mean motion (dot): 0.00016144 rev/day2

B* drag term: 0.00062253786 1/REarth

Two-line elements (TLE)

Creation date: Dec. 14, 2025, 3:07 a.m.

Reference frame: TEME

Reference center: EARTH

Epoch: Dec. 13, 2025, 4:50 p.m. UTC

TLE line 0: 0 OBJECT H

TLE line 1: 1 61901U 24205H 25347.70157015 .00016144 00000-0 62254-3 0 9995

TLE line 2: 2 61901 97.4315 61.2226 0010304 342.4130 17.6750 15.26346370 60371

Live tracking on map

Real-time ground track for satellite OBJECT H.

In-orbit conjunctions

There are no conjunctions computed for OBJECT H, at the moment. Check back to stay up to date, as we update our databases every day.

Go to all conjunctions

Associated space launch

Launch of 15 satellites on share-ride to SSO: * Shiyan 26 A/B/C * Jilin-1 High Resolution-05B * Jilin-1 Platform-02A-03 * Yunyao-1 31-36 * Xiguang-1-04/05 * Tianyan-24 * Omani IRSS-1/OL-1

OBJECT H was lifted into orbit during the mission ‘Kinetica 1 | 15 satellites’, on board a Kinetica 1 space rocket.

The launch took place on Nov. 11, 2024, 4:03 a.m. from Launch Area 130.

For more information about the launch, click the button.

Launch to space Kinetica 1 | 15 satellites
Kinetica 1 | 15 satellites

Agency: N/A

Status: Launch Successful

Launch date: Nov. 11, 2024, 4:03 a.m. UTC

Rocket: Kinetica 1

Launch pad: Launch Area 130

Location: Jiuquan Satellite Launch Center, People's Republic of China

...

Latest news about this satellite

News about space launch
Chinese commercial Lijian-1 rocket launches 15 satellites

HELSINKI — A Chinese commercial rocket sent 15 satellites into orbit late Sunday, including launch service provider CAS Space’s first international payload. The Lijian-1 (Kinetica-1) solid rocket lifted off at […]

News about space launch
Launch Roundup: SpaceX launches cargo resupply mission to ISS, Roscosmos and Rocket Lab also launch

This week got off to a flying start when new science experiments and cargo were launched to the International Space Station, and Roscosmos launched ionospheric research satellites. Rocket Lab has also launched its Electron rocket on the company’s quickest...


Newsletter sign-up

Weekly statistics, charts and insights to help you stay on top of the space industry.